Precipitable_Water
1.46 1.71 1.74 1.60 1.06 0.70 0.67 0.73 0.86 0.85 1.02 1.26 1.63 1.33 1.21 1.54 1.24 0.97 1.87 2.09 2.08 2.01 2.00 2.00 1.99 2.02 2.03 2.02 2.02 2.01 2.00 1.89 1.79 1.82 1.77 1.74 1.66 1.55 1.57 1.54 1.50 1.54 1.60 1.64 1.60 1.60 1.65 1.66 1.69
1.48 1.64 1.55 1.33 0.63 0.46 0.52 0.68 0.60 0.75 0.91 1.19 1.26 1.35 1.33 1.25 1.39 1.51 1.67 1.94 2.00 1.97 1.97 1.97 1.98 1.95 1.96 1.97 1.97 1.94 1.92 1.82 1.80 1.84 1.77 1.74 1.73 1.71 1.66 1.62 1.64 1.67 1.66 1.63 1.59 1.65 1.70 1.66 1.69
1.52 1.70 1.29 0.82 0.64 0.50 0.55 0.66 0.70 0.77 0.88 0.94 0.98 1.16 1.13 1.14 1.39 1.50 1.78 1.89 1.93 1.93 1.95 1.96 1.94 1.89 1.92 1.93 1.91 1.87 1.86 1.84 1.78 1.72 1.70 1.79 1.77 1.78 1.76 1.76 1.77 1.74 1.69 1.68 1.68 1.72 1.72 1.68 1.69
1.57 1.37 1.26 0.53 0.48 0.58 0.59 0.64 0.67 0.80 0.83 0.85 0.94 0.87 1.22 1.44 1.38 1.62 1.78 1.94 1.93 1.98 1.97 1.96 1.91 1.85 1.90 1.89 1.85 1.79 1.78 1.80 1.76 1.71 1.68 1.77 1.80 1.77 1.76 1.75 1.73 1.73 1.72 1.73 1.71 1.67 1.68 1.67 1.66
1.59 1.30 0.73 0.59 0.60 0.67 0.70 0.70 0.70 0.68 0.74 0.82 0.91 0.85 1.06 1.46 1.60 1.69 1.75 1.82 1.82 1.87 1.93 1.95 1.94 1.88 1.89 1.91 1.84 1.75 1.66 1.70 1.74 1.70 1.70 1.78 1.82 1.82 1.76 1.75 1.73 1.71 1.69 1.66 1.65 1.66 1.64 1.65 1.67
1.10 1.30 0.68 0.57 0.61 0.68 0.61 0.62 0.71 0.69 0.74 0.81 0.83 0.85 1.02 1.42 1.45 1.62 1.72 1.76 1.82 1.81 1.88 1.89 1.88 1.90 1.90 1.88 1.85 1.79 1.68 1.69 1.70 1.69 1.69 1.72 1.77 1.78 1.72 1.69 1.68 1.65 1.66 1.72 1.70 1.68 1.64 1.63 1.66
1.00 1.06 0.76 0.71 0.86 0.75 0.81 0.71 0.60 0.63 0.70 0.78 0.86 0.77 1.03 1.26 1.39 1.62 1.72 1.90 1.79 1.84 1.79 1.81 1.84 1.88 1.86 1.79 1.77 1.76 1.71 1.67 1.66 1.67 1.68 1.75 1.75 1.71 1.70 1.70 1.70 1.70 1.72 1.74 1.76 1.77 1.73 1.69 1.67
1.04 0.98 0.68 0.77 0.74 0.61 0.75 0.70 0.78 0.72 0.72 0.96 1.02 0.69 0.84 1.19 1.50 1.49 1.60 1.67 1.68 1.70 1.78 1.77 1.79 1.83 1.84 1.89 1.92 1.82 1.76 1.72 1.68 1.68 1.70 1.75 1.75 1.77 1.79 1.84 1.93 1.92 1.82 1.69 1.72 1.74 1.72 1.66 1.61
1.18 0.93 0.60 0.70 0.72 0.72 0.92 0.96 0.92 0.86 0.78 0.93 1.04 0.89 1.07 1.24 1.46 1.45 1.53 1.61 1.61 1.58 1.67 1.74 1.75 1.79 1.92 1.88 1.89 1.86 1.80 1.75 1.73 1.71 1.71 1.68 1.78 1.99 2.06 1.82 1.60 1.88 1.80 1.65 1.66 1.74 1.76 1.73 1.79
0.71 0.65 0.62 0.74 0.73 0.77 0.96 0.95 0.95 0.85 0.85 0.87 0.81 0.99 1.12 1.20 1.28 1.37 1.25 1.34 1.40 1.45 1.56 1.66 1.68 1.74 1.78 1.93 1.79 1.79 1.77 1.72 1.70 1.72 1.80 1.82 1.88 2.07 1.90 1.73 1.83 1.94 1.92 1.82 1.94 1.88 1.92 1.90 1.85
0.62 0.52 0.55 0.70 0.83 0.86 0.81 1.05 1.17 1.45 0.80 0.82 0.75 0.90 1.00 1.09 1.21 1.24 1.39 1.28 1.50 1.50 1.63 1.70 1.71 1.72 1.79 2.24 1.77 1.79 1.77 1.74 1.79 1.75 1.76 1.78 2.02 2.15 1.96 1.90 1.93 1.87 1.82 1.85 1.83 1.85 1.85 1.87 1.73
0.56 0.71 0.64 0.56 0.82 0.88 0.76 0.84 0.87 0.86 1.01 1.06 0.90 0.99 1.03 1.04 1.07 1.15 1.29 1.31 1.42 1.38 1.68 1.69 1.84 1.80 1.78 1.91 1.79 1.76 1.89 1.82 1.85 1.86 1.88 1.76 1.71 1.82 1.78 1.75 1.72 1.82 1.83 1.75 1.78 1.83 1.92 1.87 1.74
0.62 0.63 0.61 0.80 0.81 0.79 0.77 0.59 0.87 0.98 1.18 1.00 0.95 1.00 1.00 1.07 1.13 1.18 1.23 1.30 1.45 1.36 1.55 1.61 1.72 1.69 1.73 1.96 1.70 1.86 1.81 1.80 1.76 1.81 1.90 1.90 1.75 1.75 1.80 1.81 1.89 1.82 1.91 1.86 1.88 1.76 1.80 1.84 1.84
0.67 0.67 0.65 0.73 0.60 0.68 0.70 0.73 0.72 0.91 1.01 0.94 0.98 0.96 1.01 1.09 1.14 1.18 1.21 1.26 1.33 1.41 1.46 1.55 1.58 1.65 1.68 1.67 1.81 1.77 1.74 1.78 1.66 1.71 1.78 1.72 1.80 1.76 1.79 1.86 1.92 1.96 2.06 2.05 1.99 1.90 1.77 1.74 1.80
0.67 0.58 0.65 0.59 0.71 0.62 0.65 0.66 0.73 0.91 1.00 0.96 0.99 1.02 1.06 1.11 1.17 1.17 1.21 1.25 1.29 1.36 1.48 1.49 1.48 1.64 1.59 1.64 1.68 1.68 1.66 1.73 1.62 1.63 1.59 1.67 1.73 1.72 1.75 1.74 1.74 1.80 1.89 1.90 1.88 1.91 1.85 1.79 1.76
0.56 0.63 0.50 0.70 0.72 0.65 0.75 0.71 0.84 0.93 0.97 0.97 1.02 1.08 1.12 1.19 1.21 1.24 1.24 1.25 1.30 1.36 1.43 1.49 1.56 1.60 1.69 1.63 1.63 1.71 1.69 1.78 1.82 1.75 1.75 1.71 1.74 1.84 1.90 1.83 1.79 1.80 1.78 1.76 1.69 1.69 1.64 1.59 1.57
0.54 0.52 0.58 0.68 0.77 0.71 0.68 0.73 0.75 0.97 0.94 0.92 1.06 1.08 1.14 1.15 1.32 1.33 1.31 1.32 1.35 1.42 1.43 1.46 1.54 1.56 1.74 1.71 1.67 1.73 1.80 1.79 1.78 1.81 1.77 1.80 1.79 1.83 1.76 1.76 1.81 1.81 1.72 1.67 1.59 1.55 1.60 1.47 1.36
0.45 0.60 0.67 0.64 0.68 0.69 0.70 0.82 0.88 0.84 0.89 0.89 0.97 0.97 1.05 1.07 1.08 1.25 1.33 1.34 1.44 1.49 1.52 1.54 1.56 1.57 1.64 1.68 1.84 1.83 1.84 1.83 1.84 1.78 1.79 1.82 1.90 1.85 1.86 1.81 1.72 1.72 1.61 1.49 1.40 1.31 1.31 1.29 1.22
0.53 0.54 0.66 0.69 0.79 0.69 0.69 0.71 0.81 0.80 0.83 0.90 0.94 0.93 0.98 0.98 1.17 1.20 1.28 1.38 1.37 1.41 1.31 1.48 1.42 1.55 1.41 1.45 1.42 1.44 1.45 1.54 1.55 1.62 1.63 1.70 1.71 1.60 1.57 1.48 1.42 1.32 1.25 1.26 1.22 1.15 1.08 1.16 1.25
0.42 0.43 0.47 0.63 0.67 0.64 0.78 0.82 0.97 0.83 0.74 0.84 0.94 0.93 0.95 1.03 0.98 0.93 1.06 1.15 1.24 1.45 1.39 1.25 1.24 1.28 1.42 1.51 1.44 1.38 1.29 1.29 1.24 1.31 1.36 1.46 1.53 1.44 1.25 1.14 1.07 1.09 1.10 1.10 1.10 1.04 1.05 1.11 1.19
0.37 0.33 0.38 0.54 0.60 0.61 0.56 0.73 0.82 1.00 0.82 0.86 0.88 0.95 0.98 0.96 0.95 0.94 1.00 1.08 1.23 1.20 1.23 1.21 1.30 1.34 1.35 1.40 1.34 1.41 1.33 1.17 1.16 1.36 1.43 1.39 1.25 1.16 1.13 1.12 1.12 1.07 1.08 1.04 1.20 1.23 1.22 1.04 1.18
0.27 0.32 0.33 0.35 0.45 0.40 0.56 0.44 0.70 0.89 0.82 0.85 0.88 0.81 0.92 0.93 1.00 1.05 1.04 1.09 1.18 1.15 1.26 1.29 1.29 1.33 1.37 1.24 1.16 1.02 0.80 0.67 0.98 1.08 1.13 1.04 0.94 0.88 0.91 0.95 1.05 1.16 1.15 1.07 1.23 1.28 1.24 1.22 1.08
0.27 0.31 0.29 0.33 0.32 0.34 0.44 0.50 0.64 0.88 0.73 0.75 0.87 0.86 0.87 0.96 0.99 1.01 1.08 1.08 1.22 1.24 1.26 1.34 1.36 1.31 1.21 0.98 0.84 0.74 0.71 0.87 0.91 0.93 0.85 0.80 0.93 1.00 1.06 1.11 1.13 1.04 1.15 1.15 1.18 1.22 1.24 1.25 1.18
0.30 0.42 0.37 0.33 0.31 0.28 0.37 0.47 0.58 0.77 0.89 0.78 0.88 0.98 0.95 0.94 1.00 1.02 1.09 1.14 1.18 1.27 1.27 1.36 1.33 1.13 0.95 0.98 0.97 0.85 0.74 0.67 0.64 0.80 0.84 0.96 1.00 0.99 1.16 1.16 1.12 1.03 1.11 1.15 1.14 1.16 1.19 1.23 1.20
0.33 0.39 0.34 0.32 0.33 0.31 0.41 0.43 0.58 0.68 0.80 0.83 0.87 0.96 0.94 0.89 1.00 1.04 1.08 1.09 1.17 1.24 1.27 1.39 1.24 1.05 0.96 0.96 1.01 0.92 0.84 0.78 0.78 0.85 0.88 0.86 0.84 0.96 1.04 1.05 1.02 1.04 1.10 1.12 1.15 1.18 1.17 1.22 1.24
0.33 0.36 0.32 0.29 0.32 0.35 0.47 0.42 0.48 0.59 0.71 0.90 0.94 1.09 0.94 0.88 0.94 1.06 1.16 1.17 1.23 1.34 1.35 1.36 1.20 1.00 0.99 1.03 1.04 1.04 0.96 0.89 0.90 0.95 0.91 0.80 0.80 0.91 0.96 0.99 1.06 1.04 1.06 1.09 1.13 1.06 1.15 1.18 1.16
0.35 0.31 0.39 0.36 0.35 0.30 0.39 0.43 0.48 0.48 0.49 0.47 0.59 0.58 0.88 0.95 0.99 1.03 1.13 1.25 1.30 1.40 1.48 1.36 1.27 1.07 1.02 1.08 1.17 1.16 1.10 0.95 0.79 0.84 0.84 0.82 1.01 0.98 1.11 1.08 1.02 0.99 1.01 1.08 1.09 1.09 1.12 1.25 1.21
0.36 0.42 0.31 0.32 0.26 0.28 0.33 0.35 0.37 0.49 0.52 0.53 0.48 0.41 0.59 0.97 1.07 1.07 1.17 1.30 1.39 1.47 1.54 1.51 1.33 1.15 1.06 1.14 1.22 1.21 1.05 1.01 0.99 0.86 0.81 0.87 0.92 0.97 0.98 1.01 1.04 0.96 0.97 1.05 1.15 1.21 1.21 1.19 1.17
0.35 0.37 0.35 0.34 0.31 0.26 0.30 0.39 0.55 0.56 0.55 0.53 0.56 0.58 0.53 0.60 1.01 1.13 1.18 1.34 1.46 1.54 1.56 1.51 1.32 1.19 1.14 1.13 1.22 1.17 0.98 0.99 1.04 0.95 0.87 0.92 1.01 1.04 1.02 1.01 0.99 0.91 0.94 1.04 1.13 1.11 1.15 1.12 1.17
0.37 0.38 0.43 0.35 0.35 0.41 0.43 0.38 0.53 0.51 0.52 0.52 0.55 0.54 0.58 0.61 0.77 1.21 1.21 1.35 1.46 1.50 1.53 1.46 1.31 1.19 1.16 1.19 1.24 1.21 1.10 1.02 0.99 0.95 0.91 0.96 0.97 1.02 0.99 0.97 1.03 1.07 1.07 1.07 1.10 1.09 1.08 1.08 1.09
Wind_Speed
10 9 8 6 7 13 16 15 13 12 11 10 14 11 12 7 7 13 17 16 16 16 17 18 19 19 19 18 18 17 17 17 16 15 14 13 13 12 11 11 10 9 8 7 7 6 6 5 5
5 5 6 7 9 14 14 15 15 14 11 14 15 15 16 17 18 19 17 17 17 17 17 18 18 18 17 17 16 16 16 15 15 14 13 12 12 11 11 10 9 8 7 6 5 5 5 4 4
6 5 4 10 13 14 14 13 12 12 11 14 16 15 13 17 16 16 19 18 18 17 16 16 16 16 15 14 14 14 14 13 12 11 11 11 10 10 9 8 7 7 6 5 4 3 3 3 3
8 7 4 12 14 14 13 13 15 16 15 16 16 14 17 17 18 19 18 16 16 15 15 14 14 13 12 12 12 12 12 11 10 9 8 8 8 8 7 6 5 5 4 4 3 3 3 3 3
9 13 11 14 15 14 13 13 13 13 15 15 16 16 17 17 17 17 16 15 14 14 13 13 12 11 11 10 10 10 9 9 8 8 7 6 6 5 4 3 3 3 3 4 4 4 4 4 4
5 9 8 13 15 15 13 12 12 14 16 16 17 17 16 16 15 15 13 13 13 13 12 11 11 9 9 9 9 8 8 7 6 6 5 4 4 2 1 1 2 3 4 4 5 6 6 6 6
5 4 5 17 13 12 5 13 13 14 16 16 15 17 15 15 15 15 13 15 13 12 12 11 10 9 9 8 8 7 7 6 5 4 3 2 2 1 1 2 3 4 5 6 7 7 7 7 7
5 5 5 4 13 8 8 10 13 14 13 15 14 11 14 15 15 14 13 12 12 11 10 10 9 9 8 8 7 6 5 5 4 3 2 1 2 3 3 5 6 7 7 8 8 9 9 8 8
11 5 5 8 9 12 13 14 13 11 12 10 8 12 15 15 14 13 14 12 11 10 9 9 8 7 7 6 6 5 4 3 3 2 1 2 3 5 2 7 8 8 9 9 9 9 9 9 9
4 4 8 6 8 12 6 6 10 8 9 9 12 14 14 14 13 12 11 8 9 9 8 8 7 6 6 5 5 3 3 2 2 2 3 4 5 4 5 7 7 8 9 9 10 10 10 10 9
2 8 4 10 10 12 12 12 3 5 10 10 13 14 13 12 11 10 10 9 9 8 8 6 6 5 5 4 3 2 2 2 3 3 4 5 7 5 7 8 8 9 10 10 10 12 12 11 11
4 8 6 6 7 8 9 7 6 9 9 10 12 13 12 11 10 9 9 8 8 7 6 6 4 4 3 2 1 2 4 3 4 5 6 7 8 8 9 10 10 11 11 12 12 13 12 13 13
7 8 8 9 11 10 8 9 9 10 10 11 12 12 11 10 9 8 8 7 7 7 6 5 4 3 3 2 3 3 4 4 6 6 8 8 9 10 11 12 12 13 13 13 13 14 14 15 16
7 8 9 11 7 6 10 10 10 10 11 11 11 10 9 9 8 8 7 7 7 6 6 5 4 4 5 4 5 5 6 6 8 8 9 11 11 12 12 13 13 14 15 15 16 16 17 18 18
9 10 10 8 13 11 10 10 9 10 10 10 9 9 8 8 8 7 7 7 7 6 6 5 4 4 4 5 6 7 7 8 9 10 12 12 13 13 13 15 16 17 17 18 19 19 19 19 20
12 13 10 12 10 4 4 5 6 8 9 9 9 8 8 8 7 6 7 6 6 6 6 5 5 5 5 5 6 7 8 9 10 12 13 13 13 14 15 16 17 17 18 19 20 20 21 21 21
15 12 13 11 10 4 3 7 8 9 8 7 9 8 7 6 7 6 6 5 6 5 5 5 5 5 5 6 7 8 9 10 11 13 13 13 14 15 16 17 18 18 19 19 20 21 22 22 24
15 17 17 11 10 8 9 7 8 10 9 7 8 7 7 7 6 6 6 5 6 5 4 4 4 4 4 5 6 8 9 11 12 13 13 14 15 16 17 18 19 19 20 22 23 23 24 24 24
15 13 14 12 13 12 9 10 11 12 10 9 9 7 7 7 7 6 6 6 6 5 3 2 2 3 5 6 8 9 11 12 13 14 14 15 16 16 17 18 19 20 21 22 22 23 24 24 23
17 13 14 14 12 10 10 12 14 12 12 11 11 9 8 8 7 7 7 6 6 5 3 1 1 2 4 6 8 10 11 13 14 14 14 14 14 15 17 18 20 20 21 21 22 23 23 23 23
17 15 13 15 12 10 12 11 11 14 13 12 13 12 12 11 10 9 8 7 6 5 3 2 1 2 4 7 9 11 12 12 13 12 11 12 15 18 18 19 19 20 21 21 21 22 22 22 22
19 16 17 18 13 13 14 15 15 21 16 15 15 15 15 14 12 11 10 9 7 6 5 3 2 3 5 8 10 11 14 13 13 14 14 17 18 18 19 19 19 20 20 21 21 21 22 22 22
16 16 18 15 15 16 16 14 14 19 17 16 18 18 17 17 16 14 13 11 10 8 6 5 4 4 6 9 11 13 14 13 13 14 15 16 17 17 18 18 19 21 21 21 22 22 22 23 23
18 13 19 15 15 18 19 15 12 15 20 19 19 22 19 18 18 17 16 14 12 11 9 7 6 6 8 9 12 14 14 14 14 15 16 16 17 18 17 19 22 22 21 21 22 22 22 23 23
19 15 12 13 15 15 16 18 15 15 20 16 14 25 20 19 20 19 18 17 16 14 13 10 9 9 9 10 12 14 16 16 16 15 16 17 18 18 20 21 22 21 21 22 22 22 22 23 23
19 18 13 13 11 13 14 11 15 13 11 18 16 22 20 20 20 20 20 19 18 18 17 15 13 12 12 12 13 15 17 18 17 17 17 19 20 21 22 22 21 22 22 23 23 23 23 23 23
19 21 19 18 15 10 10 11 13 11 11 13 13 17 21 21 22 21 20 20 20 20 19 17 16 15 14 14 14 16 17 18 19 19 19 20 21 22 21 22 23 23 23 24 24 24 24 23 24
21 17 17 17 13 13 11 13 14 13 10 10 10 13 14 19 21 21 21 21 20 20 20 19 19 17 16 16 16 17 18 19 20 20 20 21 22 23 23 23 23 24 25 25 25 26 26 27 27
21 18 16 15 14 11 11 5 5 9 9 7 8 9 10 13 20 21 20 21 20 20 20 19 20 19 18 17 17 18 19 21 21 22 22 22 23 23 24 24 24 26 27 27 27 28 28 28 29
24 21 16 15 15 13 11 8 9 9 9 10 8 9 9 11 15 20 19 21 21 21 21 20 20 20 19 18 18 18 20 21 22 23 23 23 24 24 25 25 26 27 28 28 29 29 30 30 31
Wind_Direction
86 85 81 65 82 81 76 64 80 83 75 75 111 101 110 83 144 113 125 118 116 113 112 111 110 111 110 111 112 112 114 115 114 114 110 108 108 108 105 100 96 97 92 89 85 77 73 70 71
71 58 81 68 99 79 71 71 75 82 93 85 89 100 87 83 103 117 119 120 117 117 116 115 114 113 112 112 112 113 115 116 115 112 110 107 107 107 103 98 96 90 86 83 79 71 65 60 63
66 72 85 104 84 86 84 83 84 95 86 92 86 90 99 107 111 116 120 119 118 117 119 119 117 117 114 115 114 114 115 117 119 116 113 110 108 106 103 97 91 81 76 73 67 56 48 40 44
53 78 95 94 89 89 93 91 86 88 86 95 106 89 94 106 110 119 123 119 121 120 120 122 122 122 121 120 121 119 118 118 121 120 118 119 115 110 103 96 85 71 58 48 38 20 10 360 353
102 80 93 97 96 95 90 99 92 94 95 97 102 105 100 108 119 121 124 125 126 124 124 124 124 122 123 126 127 126 124 121 122 123 124 126 125 116 105 88 66 41 23 8 358 347 332 321 320
97 74 90 95 100 82 98 90 101 99 103 104 103 108 109 119 122 128 126 131 131 130 128 129 129 125 125 130 131 135 135 129 127 127 129 138 142 138 117 39 359 351 346 342 334 326 321 311 307
59 41 80 91 98 87 93 103 100 106 113 112 109 108 117 123 125 125 124 127 124 128 128 129 129 128 127 130 132 135 138 136 132 132 136 153 178 217 271 305 315 320 325 325 323 318 311 308 302
58 56 80 105 132 106 135 108 121 119 118 121 114 116 127 126 129 126 124 125 126 129 130 130 129 127 129 130 133 134 137 139 137 133 136 179 243 259 281 309 303 303 307 312 313 313 309 304 301
237 278 93 78 105 116 115 114 102 110 121 123 110 126 129 130 130 126 124 125 129 131 134 135 134 131 136 133 137 142 147 153 158 160 195 282 289 269 309 314 294 300 307 308 308 312 309 304 299
143 66 113 123 139 104 38 118 112 127 125 124 114 124 132 135 137 133 144 127 138 141 142 142 140 139 147 139 130 135 153 179 210 246 268 290 292 294 306 315 304 305 308 307 303 302 304 302 303
28 125 128 110 94 125 147 94 126 52 132 126 132 135 140 140 142 144 138 139 141 140 150 144 142 141 141 163 155 175 208 228 254 276 287 292 306 316 320 316 310 309 307 307 301 299 298 292 297
108 94 111 127 97 88 100 80 85 141 171 136 141 142 145 149 149 152 152 147 150 156 147 151 152 161 156 183 229 257 251 267 282 272 290 295 304 315 316 314 311 311 310 303 302 300 300 295 294
122 118 115 123 130 108 80 66 98 146 148 137 142 147 150 153 158 161 163 161 157 167 171 172 172 192 209 243 266 277 257 273 284 278 293 294 297 304 307 308 307 306 305 307 303 301 296 294 291
144 145 146 129 115 117 108 90 90 113 132 138 146 152 157 161 165 166 172 174 178 184 191 195 211 228 240 266 271 284 278 290 282 289 291 291 294 298 301 304 303 301 303 301 300 299 298 293 291
158 152 144 146 129 92 105 87 94 118 135 146 151 156 162 166 173 178 186 188 194 200 208 214 233 240 254 266 273 275 283 290 293 290 293 294 291 295 299 300 300 299 300 299 300 299 295 295 291
174 170 170 153 141 146 95 120 129 135 140 146 158 159 161 163 175 183 189 197 200 210 208 226 244 247 262 273 277 283 287 291 297 294 295 297 293 296 300 302 303 302 302 302 302 301 297 293 291
194 192 173 156 165 208 225 172 166 161 157 154 161 158 161 164 165 167 169 191 198 203 211 226 242 256 262 282 283 286 291 296 297 298 296 299 295 299 301 304 304 303 304 305 304 302 300 297 292
196 210 186 194 213 190 186 188 188 182 172 168 169 167 170 175 177 175 177 180 195 190 201 219 250 271 271 292 296 297 298 300 300 302 301 298 299 301 303 304 303 304 304 303 303 301 300 297 295
209 214 190 242 192 187 206 199 194 194 183 188 183 180 182 179 170 170 169 168 174 179 188 219 244 271 291 298 299 300 302 303 304 303 300 301 301 302 303 307 307 306 306 306 306 305 303 300 297
223 218 214 210 195 217 198 202 203 202 200 202 200 202 199 187 178 179 174 178 172 174 175 191 265 306 311 313 313 311 310 308 305 303 304 307 309 309 308 309 310 310 310 309 309 308 306 303 299
230 224 221 208 199 224 229 202 206 236 214 209 215 216 211 205 196 192 190 191 189 187 185 187 272 327 328 323 323 321 317 313 312 316 310 313 313 312 312 312 313 313 312 312 313 311 310 307 304
225 224 237 225 213 235 218 243 223 219 218 225 231 219 216 212 208 207 206 205 203 203 210 223 276 315 330 337 335 327 319 313 309 306 306 307 310 311 311 311 314 316 315 313 314 315 313 310 306
232 224 226 231 239 242 240 250 209 210 224 237 227 222 219 215 214 213 216 216 214 214 219 235 263 304 318 331 333 333 328 321 316 312 311 312 311 311 313 314 316 317 316 314 314 314 314 312 308
214 235 215 228 248 250 239 231 222 241 234 241 248 226 221 221 220 221 222 220 220 222 229 240 259 290 306 320 330 334 332 325 314 312 311 312 315 314 313 312 314 315 315 315 315 314 314 314 312
212 213 216 233 238 247 242 237 245 218 234 237 217 228 224 227 223 225 224 223 227 230 234 244 259 277 293 306 320 329 330 325 317 311 310 313 314 314 313 313 313 314 314 314 314 314 314 314 313
208 217 216 215 238 243 229 220 236 235 227 228 233 223 230 226 226 227 229 229 230 235 239 247 258 270 282 295 309 323 328 326 318 315 310 311 311 311 311 312 311 312 312 312 311 313 312 311 313
207 225 229 248 262 256 219 238 243 234 233 238 241 241 234 230 229 230 231 232 234 239 242 248 255 265 275 286 299 311 319 324 321 315 311 309 310 311 312 310 309 310 312 310 309 309 310 310 310
219 216 229 235 252 263 240 251 248 211 218 234 238 242 243 237 229 232 233 234 237 240 245 249 253 261 271 282 292 304 312 317 319 317 312 310 310 310 309 308 307 309 310 309 307 305 304 304 305
215 225 223 234 229 245 253 245 170 205 222 226 241 244 249 247 239 232 236 236 238 241 244 249 252 257 267 277 288 301 310 313 316 316 313 311 310 310 309 308 307 307 308 307 306 305 304 302 303
224 216 220 232 241 251 263 272 199 210 223 232 243 266 261 263 263 227 237 238 237 241 245 248 252 254 264 272 283 295 306 311 313 314 313 312 311 310 310 308 307 306 306 306 305 304 302 302 302